Tracking 20621 objects as of 1-Apr-2020
HD Live streaming from Space Station
objects crossing your sky now

COSMOS 2228

Track COSMOS 2228 now!
10-day predictions
COSMOS 2228 is classified as:


NORAD ID: 22286
Int'l Code: 1992-094A
Perigee: 596.6 km
Apogee: 625.3 km
Inclination: 82.5 °
Period: 96.8 minutes
Semi major axis: 6981 km
RCS: 5.331 m2 (large)
Launch date: December 25, 1992
Source: Commonwealth of Independent States (former USSR) (CIS)
Launch site: PLESETSK MISSILE AND SPACE COMPLEX (PKMTR)
aabbcc
Your satellite tracking list
Your tracking list is empty




NASA's NSSDC Master Catalog

Two Line Element Set (TLE):
1 22286U 92094A   20091.84878224 +.00000181 +00000-0 +16866-4 0  9990
2 22286 082.5187 133.1336 0020551 343.3216 016.7323 14.88124637452904
Source of the keplerian elements: AFSPC